Weather History for Destin, FL

Change the Weather History Date:

Sunday, August 24, 2014

  Actual Average Record
Temperature  
Mean Temperature 86 °F -  
Max Temperature 98 °F 87 °F 98 °F (2014)
Min Temperature 77 °F 73 °F 68 °F (1997)
Cooling Degree Days 22    
Growing Degree Days 36 (Base 50)    
Moisture  
Dew Point 75 °F    
Average Humidity 72    
Maximum Humidity 94    
Minimum Humidity 47    
Precipitation  
Precipitation 0.37 in - - ()
Sea Level Pressure  
Sea Level Pressure 29.86 in    
Wind  
Wind Speed 7 mph (NE)    
Max Wind Speed 23 mph    
Max Gust Speed 34 mph    
Visibility 8 miles    
Events Fog , Rain    
Averages and records for this station are not official NWS values.
T = Trace of Precipitation, MM = Missing Value Source: NWS Daily Summary

Daily Weather History Graph

Daily Weather History Graph

Search for Another Location

Airport:

Trip Planner

Search our weather history database for the weather conditions in past years. The results will help you decide how hot, cold, wet, or windy it might be!

Date:

Astronomy

Aug. 24, 2014 Rise Set
Actual Time 6:18 AM CDT 7:17 PM CDT
Civil Twilight 5:53 AM CDT 7:42 PM CDT
Nautical Twilight 5:23 AM CDT 8:11 PM CDT
Astronomical Twilight 4:53 AM CDT 8:42 PM CDT
Moon 5:27 AM CDT (8/24) 6:38 PM CDT (8/24)
Length of Visible Light 13h 49m
Length of Day
12h 59m
Waning Crescent, 1% of the Moon is Illuminated
Aug 24
Waning Crescent
Aug 25
New
Sep 2
First Quarter
Sep 8
Full
Sep 15
Last Quarter

Hourly Weather History & Observations

Time (CDT) Temp. Heat Index Dew Point Humidity Pressure Visibility Wind Dir Wind Speed Gust Speed Precip Events Conditions
12:53 AM 87.1 °F 98.8 °F 77.0 °F 72% 29.89 in 10.0 mi Variable 4.6 mph - N/A   Clear
1:53 AM 84.9 °F 95.3 °F 77.0 °F 77% 29.88 in 10.0 mi NW 5.8 mph - N/A   Clear
2:53 AM 84.0 °F 92.6 °F 75.9 °F 76% 29.87 in 10.0 mi NW 4.6 mph - N/A   Clear
3:53 AM 84.0 °F 91.9 °F 75.0 °F 74% 29.86 in 10.0 mi NNW 3.5 mph - N/A   Clear
4:53 AM 82.0 °F 87.9 °F 73.9 °F 76% 29.87 in 10.0 mi NW 4.6 mph - N/A   Clear
5:53 AM 82.9 °F 88.8 °F 73.0 °F 72% 29.88 in 10.0 mi NNW 6.9 mph - N/A   Clear
6:53 AM 82.9 °F 88.0 °F 72.0 °F 69% 29.89 in 10.0 mi North 6.9 mph - N/A   Clear
7:53 AM 84.0 °F 90.2 °F 73.0 °F 69% 29.89 in 10.0 mi North 8.1 mph - N/A   Clear
8:53 AM 87.1 °F 94.5 °F 73.0 °F 63% 29.90 in 10.0 mi North 4.6 mph - N/A   Clear
9:53 AM 90.0 °F 97.9 °F 73.0 °F 57% 29.90 in 10.0 mi North 6.9 mph - N/A   Clear
10:53 AM 93.9 °F 105.4 °F 75.0 °F 54% 29.89 in 10.0 mi NE 4.6 mph - N/A   Clear
11:53 AM 96.1 °F 105.6 °F 73.0 °F 47% 29.88 in 10.0 mi Variable 3.5 mph - N/A   Clear
12:53 PM 93.9 °F 106.9 °F 75.9 °F 56% 29.86 in 10.0 mi Variable 6.9 mph - N/A   Clear
1:53 PM 93.9 °F 106.9 °F 75.9 °F 56% 29.84 in 10.0 mi WSW 11.5 mph - N/A   Partly Cloudy
2:53 PM 91.0 °F 109.1 °F 80.1 °F 70% 29.82 in 8.0 mi Variable 4.6 mph - 0.00 in Rain Light Rain
3:53 PM 91.9 °F 107.3 °F 78.1 °F 64% 29.81 in 10.0 mi South 6.9 mph - 0.00 in   Mostly Cloudy
4:53 PM 93.9 °F 106.9 °F 75.9 °F 56% 29.79 in 10.0 mi Variable 4.6 mph - N/A   Clear
5:53 PM 91.9 °F 103.2 °F 75.0 °F 58% 29.79 in 10.0 mi Variable 5.8 mph - N/A   Partly Cloudy
6:47 PM 80.6 °F 86.2 °F 75.2 °F 84% 29.86 in 0.8 mi ENE 23.0 mph 31.1 mph 0.22 in Rain Heavy Rain
6:53 PM 79.0 °F - 77.0 °F 94% 29.86 in 0.5 mi East 18.4 mph 34.5 mph 0.30 in Fog , Rain Heavy Rain
6:57 PM 79.0 °F - 75.9 °F 90% 29.85 in 1.0 mi ESE 16.1 mph 34.5 mph 0.02 in Rain Heavy Rain
7:01 PM 78.1 °F - 75.9 °F 93% 29.84 in 2.0 mi ESE 10.4 mph 26.5 mph 0.04 in Rain Heavy Rain
7:09 PM 77.0 °F - 75.0 °F 94% 29.83 in 4.0 mi ENE 9.2 mph 19.6 mph 0.06 in Rain Heavy Rain
7:53 PM 80.1 °F 85.1 °F 75.0 °F 85% 29.84 in 10.0 mi East 5.8 mph - 0.07 in   Partly Cloudy
8:53 PM 81.0 °F 86.7 °F 75.0 °F 82% 29.88 in 10.0 mi NNE 6.9 mph - N/A   Partly Cloudy
9:53 PM 82.0 °F 89.4 °F 75.9 °F 82% 29.90 in 10.0 mi East 8.1 mph - N/A   Partly Cloudy
10:53 PM 81.0 °F 86.2 °F 73.9 °F 79% 29.89 in 10.0 mi ESE 12.7 mph - N/A   Clear
11:53 PM 80.1 °F 84.5 °F 73.9 °F 81% 29.90 in 10.0 mi East 6.9 mph - 0.00 in   Clear